Tracking 17925 objects as of 19-January-2017
HD Live streaming from Space Station
objects crossing your sky now

IRIDIUM 18

Track IRIDIUM 18 now!
10-day predictions
IRIDIUM 18 is classified as:


NORAD ID: 24872
Int'l Code: 1997-034D
Perigee: 783.2 km
Apogee: 786.4 km
Inclination: 86.4 °
Period: 100.4 minutes
Semi major axis: 7155 km
RCS: 3.8649 m2 (large)
Launch date: July 9, 1997
Source: United States (US)
Launch site: AIR FORCE WESTERN TEST RANGE (AFWTR)
Your satellite tracking list
Your tracking list is empty





NASA's NSSDC Master Catalog

Two Line Element Set (TLE):
1 24872U 97034D   17018.46943540  .00000147  00000-0  45458-4 0  9990
2 24872  86.3960  84.6783 0002291  96.4368 263.7088 14.34221100 22458
Source of the keplerian elements: AFSPC